Regional Weather Roundup
Issued by NWS

Home | Current Version | Previous Version | Text Only | Print | Product List | Glossary On
Versions: 1 2 3 4 5 6 7 8 9 10 11 12 13 14 15 16 17 18 19 20 21 22 23 24 25 26 27 28 29 30 31 32 33 34 35 36 37 38 39 40 41 42 43 44 45 46 47 48 49 50
000
ASUS45 KABQ 292110
RWRNM
WEATHER ROUNDUP FOR NEW MEXICO
NATIONAL WEATHER SERVICE ALBUQUERQUE NM
300 PM MDT SUN MAR 29 2015

NOTE: "FAIR" MEANS FEW OR NO CLOUDS BELOW 12,000 FEET AGL WITH NO
       SIGNIFICANT WEATHER OR OBSTRUCTIONS TO VISION.

      THIS PRODUCT IS RELEASED AS TWO VERSIONS.  ONE VERSION NEAR
      THE TOP OF THE HOUR CONTAINING PRELIMINARY DATA FROM ALBUQUERQUE
      AND OTHER STATIONS.  A FINAL VERSION WITH ADDITIONAL DATA IS
      ISSUED ABOUT 10 MINUTES AFTER THE HOUR.

NMZ501-503-504-510>518-292200-
NORTHWEST PLATEAU/NORTHCENTRAL MOUNTAINS

CITY           SKY/WX    TMP DP  RH WIND       PRES   REMARKS
FARMINGTON     SUNNY     75  16  10 NW9G20    30.17F
LOS ALAMOS     MOSUNNY   68  19  15 S5        30.26F
SANTA FE       MOSUNNY   73  12   9 SW6G17    30.21F
TAOS           PTSUNNY   66  19  16 W5        30.24F
ANGEL FIRE     FAIR      60  23  24 S17G25    30.32F

$$
NMZ402-403-502-505>509-292200-
WESTCENTRAL MOUNTAINS/SOUTHWEST MOUNTAINS

CITY           SKY/WX    TMP DP  RH WIND       PRES   REMARKS
GALLUP         SUNNY     72   8   8 VRB3      30.24F
GRANTS         MOSUNNY   71  12  10 W12       30.23F
SILVER CITY    CLOUDY    77  14   9 W14G23    30.23F

$$
NMZ407-409-411-412-292200-
SOUTHERN DESERTS

CITY           SKY/WX    TMP DP  RH WIND       PRES   REMARKS
LORDSBURG      FAIR      81  16   9 W7        30.16F
DEMING         CLOUDY    83  15   8 W10       30.15F
LAS CRUCES     SUNNY     85  13   6 SW12      30.15F
HOLLOMAN AFB   PTSUNNY   84   7   5 NW3       30.11F
ALAMOGORDO     PTSUNNY   82   9   6 NW10      30.13F
T OR C         CLOUDY    82   9   6 MISG      30.13F

$$
NMZ519>523-292200-
CENTRAL VALLEYS/CENTRAL HIGHLANDS

CITY           SKY/WX    TMP DP  RH WIND       PRES   REMARKS
ALBUQUERQUE    PTSUNNY   76  20  12 SE7       30.18F
DOUBLE EAGLE   MOSUNNY   75  16  10 VRB6      30.20F
MORIARTY ARPT  FAIR      75  10   8 W6        30.22F
CLINES CORNERS MOSUNNY   70  10  10 VRB3      30.25F
BELEN          FAIR      79  14   8 NE8       30.16F
SOCORRO        FAIR      83  18   9 SE12      30.13F

$$
NMZ524>526-539-540-292200-
SOUTHCENTRAL MOUNTAINS

CITY           SKY/WX    TMP DP  RH WIND       PRES   REMARKS
RUIDOSO        PTSUNNY   72   3   7 N12       30.28F

$$
NMZ527>531-292200-
NORTHEAST HIGHLANDS/NORTHEAST PLAINS

CITY           SKY/WX    TMP DP  RH WIND       PRES   REMARKS
LAS VEGAS      PTSUNNY   67  23  19 S17G25    30.27F
RATON          MOSUNNY   67  23  19 SE7       30.23F
CLAYTON        CLOUDY    67  22  18 NE18G25   30.24F

$$
NMZ532>537-292200-
EASTCENTRAL PLAINS

CITY           SKY/WX    TMP DP  RH WIND       PRES   REMARKS
TUCUMCARI      MOSUNNY   74  27  17 NE17G26   30.19F
CANNON AFB     SUNNY     75  32  20 NE23G30   30.18F
CLOVIS AIRPORT SUNNY     75  30  19 NE22G28   30.18F

$$
NMZ028-029-538-292200-
SOUTHEAST PLAINS

CITY           SKY/WX    TMP DP  RH WIND       PRES   REMARKS
ROSWELL        SUNNY     87  22   9 NE12      30.09F
ARTESIA        SUNNY     86  27  11 E13G20    30.08F
CARLSBAD       SUNNY     90  21   8 NE12G18   30.06F
HOBBS          SUNNY     84  28  13 N12G23    30.12S


$$



USA.gov is the U.S. government's official web portal to all federal, state and local government web resources and services.